TimeCDT,TemperatureF,Dew PointF,Humidity,Sea Level PressureIn,VisibilityMPH,Wind Direction,Wind SpeedMPH,Gust SpeedMPH,PrecipitationIn,Events,Conditions,WindDirDegrees,DateUTC
1:53 AM,59.0,55.9,90,29.77,10.0,SW,3.5,-,N/A,,Clear,220,2013-05-17 06:53:00
2:53 AM,57.9,55.9,93,29.78,10.0,West,3.5,-,N/A,,Clear,280,2013-05-17 07:53:00
3:53 AM,57.0,55.0,93,29.81,10.0,North,6.9,-,N/A,,Clear,350,2013-05-17 08:53:00
4:53 AM,55.9,54.0,93,29.83,10.0,North,5.8,-,N/A,,Clear,350,2013-05-17 09:53:00
5:53 AM,55.0,54.0,96,29.84,10.0,Calm,Calm,-,N/A,,Clear,0,2013-05-17 10:53:00
7:53 AM,59.0,57.0,93,29.85,10.0,South,4.6,-,N/A,,Clear,170,2013-05-17 12:53:00
8:53 AM,64.9,61.0,87,29.86,10.0,South,5.8,-,N/A,,Clear,180,2013-05-17 13:53:00
9:53 AM,69.1,61.0,75,29.86,10.0,WSW,5.8,-,N/A,,Clear,240,2013-05-17 14:53:00
10:53 AM,72.0,61.0,68,29.85,10.0,South,4.6,-,N/A,,Clear,170,2013-05-17 15:53:00
11:53 AM,77.0,60.1,56,29.84,10.0,SSE,9.2,-,N/A,,Clear,150,2013-05-17 16:53:00
12:53 PM,81.0,57.9,45,29.82,10.0,SE,11.5,-,N/A,,Clear,130,2013-05-17 17:53:00
1:53 PM,84.0,57.0,40,29.80,10.0,SSE,10.4,23.0,N/A,,Clear,150,2013-05-17 18:53:00
2:53 PM,84.9,57.0,38,29.79,10.0,SE,10.4,21.9,N/A,,Clear,140,2013-05-17 19:53:00
3:53 PM,87.1,55.0,33,29.77,10.0,SE,17.3,23.0,N/A,,Clear,140,2013-05-17 20:53:00
4:53 PM,87.1,54.0,32,29.75,10.0,SE,16.1,27.6,N/A,,Clear,140,2013-05-17 21:53:00
5:53 PM,87.1,55.0,33,29.74,10.0,SE,18.4,28.8,N/A,,Clear,140,2013-05-17 22:53:00
6:53 PM,84.9,57.0,38,29.74,10.0,SSE,17.3,27.6,N/A,,Clear,150,2013-05-17 23:53:00
7:53 PM,81.0,57.9,45,29.74,10.0,SE,18.4,24.2,N/A,,Clear,140,2013-05-18 00:53:00
8:53 PM,75.9,59.0,56,29.75,10.0,SSE,12.7,-,N/A,,Clear,150,2013-05-18 01:53:00
9:53 PM,73.0,64.0,73,29.76,10.0,SSE,9.2,-,N/A,,Clear,160,2013-05-18 02:53:00
10:53 PM,70.0,63.0,78,29.79,10.0,SSE,8.1,-,N/A,,Clear,150,2013-05-18 03:53:00
11:48 PM,69.8,64.4,83,29.85,10.0,SSE,9.2,-,N/A,,Mostly Cloudy,150,2013-05-18 04:48:00
11:53 PM,70.0,64.9,84,29.78,9.0,SE,8.1,-,N/A,,Mostly Cloudy,140,2013-05-18 04:53:00